Location: Hillsboro
(38.3483°N, 97.1938°W)
Time: 21:33:35
(UTC-05:00)

Daily predictions for brighter satellites

Satellite Brightness Start Highest point End
(mag) Time Altitude Azimuth Time Altitude Azimuth Time Altitude Azimuth
Meteor 2-5 Rocket 4.2 19:36:49 10° N 19:42:20 41° ENE 19:47:43 10° SE
COSMOS 2406 4.0 19:38:02 10° SSE 19:42:50 29° ESE 19:47:41 10° NE
Cosmos 2369 Rocket 3.1 19:38:12 10° NNW 19:43:41 54° WSW 19:49:07 10° S
USA 234 3.5 19:37:41 10° SE 19:44:14 77° SW 19:50:49 10° NW
Cosmos 990 Rocket 4.1 19:40:08 10° N 19:45:12 54° ENE 19:50:13 10° SSE
Cosmos 1707 3.1 19:41:36 10° N 19:45:21 42° E 19:49:04 10° SSE
Cosmos 1378 3.4 19:49:15 10° N 19:52:54 46° E 19:56:32 10° SSE
BREEZE-M DEB (TANK) 4.5 19:34:43 10° SW 19:53:50 63° SSE 19:58:54 10° ENE
Cosmos 1271 Rocket 4.0 19:57:03 10° SSW 20:00:40 45° WNW 20:04:23 10° N
Geosat 4.2 19:56:22 10° SE 20:01:16 55° ENE 20:06:10 10° NNW
ALOS 2.2 19:57:17 10° SSE 20:01:55 76° ENE 20:06:36 10° N
ATLAS CENTAUR R/B 3.8 19:49:44 10° NW 20:04:57 64° NE 20:09:50 11° ESE
COSMO-SKYMED 1 4.1 20:04:41 10° N 20:08:45 40° WNW 20:12:48 10° SW
USA 81 4.0 20:03:30 10° N 20:08:47 70° E 20:14:02 10° SSE
Cosmos 2150 Rocket 4.1 20:04:21 10° NNW 20:09:43 87° WSW 20:15:08 10° SSE
FREGAT/IRIS 2.6 20:11:10 10° SSE 20:14:09 60° ENE 20:17:09 10° N
Cosmos 1758 Rocket 4.1 20:10:36 10° NNW 20:15:04 65° W 20:19:30 10° S
Cosmos 1340 Rocket 3.8 20:13:33 10° NNW 20:17:31 51° W 20:21:28 10° S
Cosmos 841 Rocket 3.5 20:12:25 10° SSW 20:17:33 84° WNW 20:22:43 10° NNE
Cosmos 1726 Rocket 4.4 20:13:37 10° SSW 20:17:53 54° W 20:22:09 10° N
Cosmos 1805 4.2 20:15:16 10° SE 20:18:28 25° E 20:21:42 10° NE
USA 229 DEB 4.5 20:13:41 10° NW 20:20:43 58° WSW 20:27:51 10° SSE
USA 229 4.5 20:13:47 10° NW 20:20:48 58° WSW 20:27:57 10° SSE
Cosmos 2181 Rocket 4.3 20:15:34 10° N 20:21:43 72° W 20:27:47 10° S
Cosmos 1937 Rocket 4.2 20:18:19 10° NNW 20:23:31 57° WSW 20:28:38 10° S
SL-27 R/B 4.0 20:22:08 10° SSE 20:23:47 19° SE 20:23:47 19° SE
NOSS 3-1 (A) 4.1 20:17:44 10° NNW 20:25:22 65° NE 20:33:24 11° SE
CZ-2D R/B 4.0 20:23:20 18° ESE 20:25:25 31° ENE 20:28:48 10° N
CSL-04 DEB 4.5 20:24:50 10° SSE 20:29:13 80° ENE 20:33:35 10° N
Resurs 1-3 4.5 20:28:08 21° ESE 20:29:59 29° ENE 20:33:47 10° N
Cosmos 2154 Rocket 4.4 20:25:21 10° SSE 20:31:03 40° E 20:36:48 10° NNE
HJ-1C 3.3 20:29:40 10° SSE 20:32:59 68° ENE 20:36:20 10° N
Cosmos 2074 Rocket 3.9 20:26:56 10° S 20:33:09 83° E 20:39:22 10° N
NOSS 3-1 (C) 4.1 20:26:13 10° NNW 20:33:59 90° WSW 20:42:31 10° SSE
Cosmos 540 Rocket 3.3 20:29:10 10° S 20:34:13 67° ESE 20:39:18 10° NNE
Cosmos 1943 Rocket 4.0 20:31:58 10° NW 20:36:51 32° WSW 20:41:45 10° SSW
Cosmos 2228 4.4 20:39:13 10° SSW 20:43:21 42° W 20:47:30 10° N
Meteor 1-24 Rocket 3.8 20:37:52 10° N 20:43:52 88° E 20:49:37 10° S
SJ-6B 3.1 20:43:40 10° S 20:47:40 69° WSW 20:51:37 10° NNW
Cosmos 1953 3.6 20:53:14 25° NE 20:53:14 25° NE 20:55:22 10° NNE
FALCON 9 R/B 1.9 20:50:04 10° WSW 20:53:04 55° S 20:55:16 32° ESE
Resurs 01 Rocket 1.6 20:51:54 32° SE 20:53:44 57° ENE 20:58:05 10° N
Cosmos 1356 Rocket 4.4 20:52:59 10° NNW 20:57:08 48° W 21:01:17 10° S
Cosmos 1812 Rocket 3.4 20:52:57 10° S 20:57:23 80° E 21:01:53 10° N
GP-B 3.0 20:54:27 10° N 20:58:51 63° E 21:01:04 28° SSE
H-2A R/B 4.0 20:55:46 10° S 20:59:15 39° W 21:02:48 10° NNW
Nadezhda 3 Rocket 3.9 20:57:32 10° N 21:03:48 65° E 21:07:52 22° SSE
Spot 2 Rocket 3.4 21:05:06 36° SE 21:07:05 69° ENE 21:12:06 10° N
Meteor 2-8 Rocket 4.5 21:01:09 10° N 21:07:19 82° W 21:13:23 10° S
Cosmos 2285 Rocket 4.3 21:05:20 10° S 21:11:19 43° E 21:17:21 10° NNE
Cosmos 292 Rocket 3.6 21:11:56 10° SSW 21:16:45 77° ESE 21:21:39 10° NNE
ISS -2.3 21:17:43 10° WSW 21:19:46 34° WSW 21:19:46 34° WSW
Cosmos 1295 Rocket 4.3 21:21:26 30° SSE 21:24:34 67° E 21:30:36 10° NNE
Okean 3 Rocket 4.4 21:21:23 10° N 21:24:21 38° NNE 21:24:21 38° NNE
OAO 3 Copernicus 4.5 21:22:17 10° W 21:27:10 57° S 21:27:10 57° S
Cosmos 1809 Rocket 4.3 21:30:54 62° ESE 21:31:07 63° E 21:37:10 10° NNE
SL-8 Rocket 4.2 21:35:30 50° NE 21:35:30 50° NE 21:40:25 10° NNE
Cosmos 1674 4.3 21:31:05 10° N 21:32:59 28° NNW 21:32:59 28° NNW
Cosmos 1125 Rocket 4.3 21:29:55 10° NNW 21:35:01 49° WSW 21:37:25 29° SSW
Cosmos 1758 4.2 21:35:13 45° WSW 21:35:43 48° W 21:39:37 10° N
MOS 1-B Rocket 4.1 21:33:41 26° S 21:37:17 69° WSW 21:42:58 10° NNW
Envisat 3.3 21:38:12 46° SSW 21:39:29 62° W 21:44:32 10° NNW
Cosmos 2369 4.1 21:36:36 10° NNW 21:41:12 49° NNE 21:41:12 49° NNE
BREEZE M DEB (TANK) 4.4 21:38:36 10° WNW 21:41:48 30° W 21:41:48 30° W
Meteor 1-21 Rocket 4.2 21:38:40 10° NNW 21:44:24 79° W 21:45:01 70° SSW
Meteor 2-15 4.5 21:44:46 10° N 21:49:59 64° NNE 21:49:59 64° NNE
H-2A R/B 4.4 21:59:17 12° NNE 21:59:17 12° NNE 21:59:40 10° NNE
ATLAS 2AS CENTAUR R/B 3.1 21:59:35 10° NNW 22:07:05 59° NE 22:07:05 59° NE
Milstar 3 Cent rocket 4.3 22:10:23 10° SW 22:11:02 13° SW 22:11:02 13° SW
Cosmos 1697 Rocket 4.4 22:33:18 10° NNW 22:35:53 28° NNW 22:35:53 28° NNW
Cosmos 1980 Rocket 4.2 22:34:59 10° NNW 22:36:53 21° N 22:36:53 21° N
